Year,Month,Day,Hour,Minute,Value (Times are PST for temperature in C)
2018,08,09,00,00,22.30
2018,08,09,00,01,22.30
2018,08,09,00,02,22.30
2018,08,09,00,03,22.20
2018,08,09,00,04,22.20
2018,08,09,00,05,22.20
2018,08,09,00,06,22.10
2018,08,09,00,07,22.10
2018,08,09,00,08,22.10
2018,08,09,00,09,22.10
2018,08,09,00,10,22.00
2018,08,09,00,11,22.00
2018,08,09,00,12,21.90
2018,08,09,00,13,21.90
2018,08,09,00,14,21.90
2018,08,09,00,15,21.80
2018,08,09,00,16,21.80
2018,08,09,00,17,21.80
2018,08,09,00,18,21.80
2018,08,09,00,19,21.80
2018,08,09,00,20,21.80
2018,08,09,00,21,21.80
2018,08,09,00,22,21.70
2018,08,09,00,23,21.70
2018,08,09,00,24,21.70
2018,08,09,00,25,21.70
2018,08,09,00,26,21.70
2018,08,09,00,27,21.70
2018,08,09,00,28,21.70
2018,08,09,00,29,21.70
2018,08,09,00,30,21.70
2018,08,09,00,31,21.70
2018,08,09,00,32,21.60
2018,08,09,00,33,21.60
2018,08,09,00,34,21.60
2018,08,09,00,35,21.60
2018,08,09,00,36,21.60
2018,08,09,00,37,21.60
2018,08,09,00,38,21.60
2018,08,09,00,39,21.50
2018,08,09,00,40,21.50
2018,08,09,00,41,21.50
2018,08,09,00,42,21.50
2018,08,09,00,43,21.50
2018,08,09,00,44,21.50
2018,08,09,00,45,21.50
2018,08,09,00,46,21.40
2018,08,09,00,47,21.40
2018,08,09,00,48,21.40
2018,08,09,00,49,21.40
2018,08,09,00,50,21.40
2018,08,09,00,51,21.40
2018,08,09,00,52,21.30
2018,08,09,00,53,21.30
2018,08,09,00,54,21.30
2018,08,09,00,55,21.30
2018,08,09,00,56,21.30
2018,08,09,00,57,21.30
2018,08,09,00,58,21.20
2018,08,09,00,59,21.20
2018,08,09,01,00,21.20
2018,08,09,01,01,21.20
2018,08,09,01,02,21.10
2018,08,09,01,03,21.10
2018,08,09,01,04,21.10
2018,08,09,01,05,21.10
2018,08,09,01,06,21.10
2018,08,09,01,07,21.00
2018,08,09,01,08,21.00
2018,08,09,01,09,21.00
2018,08,09,01,10,20.90
2018,08,09,01,11,20.90
2018,08,09,01,12,20.90
2018,08,09,01,13,20.90
2018,08,09,01,14,20.80
2018,08,09,01,15,20.80
2018,08,09,01,16,20.80
2018,08,09,01,17,20.80
2018,08,09,01,18,20.80
2018,08,09,01,19,20.70
2018,08,09,01,20,20.70
2018,08,09,01,21,20.70
2018,08,09,01,22,20.70
2018,08,09,01,23,20.70
2018,08,09,01,24,20.70
2018,08,09,01,25,20.60
2018,08,09,01,26,20.60
2018,08,09,01,27,20.60
2018,08,09,01,28,20.60
2018,08,09,01,29,20.60
2018,08,09,01,30,20.60
2018,08,09,01,31,20.60
2018,08,09,01,32,20.60
2018,08,09,01,33,20.50
2018,08,09,01,34,20.50
2018,08,09,01,35,20.50
2018,08,09,01,36,20.50
2018,08,09,01,37,20.50
2018,08,09,01,38,20.50
2018,08,09,01,39,20.50
2018,08,09,01,40,20.50
2018,08,09,01,41,20.50
2018,08,09,01,42,20.50
2018,08,09,01,43,20.50
2018,08,09,01,44,20.50
2018,08,09,01,45,20.50
2018,08,09,01,46,20.50
2018,08,09,01,47,20.50
2018,08,09,01,48,20.50
2018,08,09,01,49,20.50
2018,08,09,01,50,20.40
2018,08,09,01,51,20.40
2018,08,09,01,52,20.40
2018,08,09,01,53,20.40
2018,08,09,01,54,20.30
2018,08,09,01,55,20.30
2018,08,09,01,56,20.30
2018,08,09,01,57,20.30
2018,08,09,01,58,20.30
2018,08,09,01,59,20.30
2018,08,09,02,00,20.20
2018,08,09,02,01,20.20
2018,08,09,02,02,20.20
2018,08,09,02,03,20.20
2018,08,09,02,04,20.20
2018,08,09,02,05,20.10
2018,08,09,02,06,20.10
2018,08,09,02,07,20.10
2018,08,09,02,08,20.10
2018,08,09,02,09,20.10
2018,08,09,02,10,20.00
2018,08,09,02,11,20.00
2018,08,09,02,12,20.00
2018,08,09,02,13,20.00
2018,08,09,02,14,20.00
2018,08,09,02,15,19.90
2018,08,09,02,16,19.90
2018,08,09,02,17,19.90
2018,08,09,02,18,19.90
2018,08,09,02,19,19.90
2018,08,09,02,20,19.90
2018,08,09,02,21,19.90
2018,08,09,02,22,19.80
2018,08,09,02,23,19.80
2018,08,09,02,24,19.80
2018,08,09,02,25,19.80
2018,08,09,02,26,19.80
2018,08,09,02,27,19.80
2018,08,09,02,28,19.80
2018,08,09,02,29,19.70
2018,08,09,02,30,19.70
2018,08,09,02,31,19.70
2018,08,09,02,32,19.70
2018,08,09,02,33,19.70
2018,08,09,02,34,19.70
2018,08,09,02,35,19.70
2018,08,09,02,36,19.60
2018,08,09,02,37,19.60
2018,08,09,02,38,19.60
2018,08,09,02,39,19.50
2018,08,09,02,40,19.50
2018,08,09,02,41,19.40
2018,08,09,02,42,19.40
2018,08,09,02,43,19.40
2018,08,09,02,44,19.40
2018,08,09,02,45,19.40
2018,08,09,02,46,19.30
2018,08,09,02,47,19.30
2018,08,09,02,48,19.30
2018,08,09,02,49,19.30
2018,08,09,02,50,19.30
2018,08,09,02,51,19.30
2018,08,09,02,52,19.20
2018,08,09,02,53,19.20
2018,08,09,02,54,19.20
2018,08,09,02,55,19.20
2018,08,09,02,56,19.20
2018,08,09,02,57,19.10
2018,08,09,02,58,19.10
2018,08,09,02,59,19.10
2018,08,09,03,00,19.10
2018,08,09,03,01,19.00
2018,08,09,03,02,19.00
2018,08,09,03,03,19.00
2018,08,09,03,04,19.00
2018,08,09,03,05,19.00
2018,08,09,03,06,19.00
2018,08,09,03,07,18.90
2018,08,09,03,08,18.90
2018,08,09,03,09,18.80
2018,08,09,03,10,18.80
2018,08,09,03,11,18.80
2018,08,09,03,12,18.80
2018,08,09,03,13,18.70
2018,08,09,03,14,18.70
2018,08,09,03,15,18.70
2018,08,09,03,16,18.60
2018,08,09,03,17,18.60
2018,08,09,03,18,18.60
2018,08,09,03,19,18.60
2018,08,09,03,20,18.60
2018,08,09,03,21,18.60
2018,08,09,03,22,18.60
2018,08,09,03,23,18.60
2018,08,09,03,24,18.60
2018,08,09,03,25,18.60
2018,08,09,03,26,18.60
2018,08,09,03,27,18.40
2018,08,09,03,28,18.30
2018,08,09,03,29,18.30
2018,08,09,03,30,18.30
2018,08,09,03,31,18.20
2018,08,09,03,32,18.20
2018,08,09,03,33,18.20
2018,08,09,03,34,18.20
2018,08,09,03,35,18.10
2018,08,09,03,36,18.10
2018,08,09,03,37,18.10
2018,08,09,03,38,18.10
2018,08,09,03,39,18.10
2018,08,09,03,40,18.10
2018,08,09,03,41,18.00
2018,08,09,03,42,18.00
2018,08,09,03,43,18.00
2018,08,09,03,44,17.90
2018,08,09,03,45,17.90
2018,08,09,03,46,17.90
2018,08,09,03,47,17.90
2018,08,09,03,48,17.80
2018,08,09,03,49,17.80
2018,08,09,03,50,17.80
2018,08,09,03,51,17.90
2018,08,09,03,52,17.90
2018,08,09,03,53,17.90
2018,08,09,03,54,17.90
2018,08,09,03,55,17.90
2018,08,09,03,56,17.90
2018,08,09,03,57,17.90
2018,08,09,03,58,17.90
2018,08,09,03,59,17.90
2018,08,09,04,00,17.90
2018,08,09,04,01,17.90
2018,08,09,04,02,18.00
2018,08,09,04,03,18.00
2018,08,09,04,04,18.00
2018,08,09,04,05,18.10
2018,08,09,04,06,18.10
2018,08,09,04,07,18.10
2018,08,09,04,08,18.10
2018,08,09,04,09,18.10
2018,08,09,04,10,18.10
2018,08,09,04,11,18.10
2018,08,09,04,12,18.10
2018,08,09,04,13,18.10
2018,08,09,04,14,18.10
2018,08,09,04,15,18.10
2018,08,09,04,16,18.00
2018,08,09,04,17,18.00
2018,08,09,04,18,18.00
2018,08,09,04,19,17.90
2018,08,09,04,20,17.90
2018,08,09,04,21,17.90
2018,08,09,04,22,17.90
2018,08,09,04,23,17.90
2018,08,09,04,24,17.80
2018,08,09,04,25,17.80
2018,08,09,04,26,17.80
2018,08,09,04,27,17.80
2018,08,09,04,28,17.70
2018,08,09,04,29,17.70
2018,08,09,04,30,17.70
2018,08,09,04,31,17.60
2018,08,09,04,32,17.60
2018,08,09,04,33,17.60
2018,08,09,04,34,17.60
2018,08,09,04,35,17.50
2018,08,09,04,36,17.50
2018,08,09,04,37,17.50
2018,08,09,04,38,17.40
2018,08,09,04,39,17.40
2018,08,09,04,40,17.40
2018,08,09,04,41,17.40
2018,08,09,04,42,17.30
2018,08,09,04,43,17.30
2018,08,09,04,44,17.30
2018,08,09,04,45,17.30
2018,08,09,04,46,17.30
2018,08,09,04,47,17.20
2018,08,09,04,48,17.20
2018,08,09,04,49,17.20
2018,08,09,04,50,17.20
2018,08,09,04,51,17.10
2018,08,09,04,52,17.10
2018,08,09,04,53,17.10
2018,08,09,04,54,17.00
2018,08,09,04,55,17.00
2018,08,09,04,56,17.00
2018,08,09,04,57,16.90
2018,08,09,04,58,16.90
2018,08,09,04,59,16.90
2018,08,09,05,00,16.90
2018,08,09,05,01,16.90
2018,08,09,05,02,16.80
2018,08,09,05,03,16.80
2018,08,09,05,04,16.80
2018,08,09,05,05,16.80
2018,08,09,05,06,16.80
2018,08,09,05,07,16.80
2018,08,09,05,08,16.70
2018,08,09,05,09,16.70
2018,08,09,05,10,16.70
2018,08,09,05,11,16.70
2018,08,09,05,12,16.70
2018,08,09,05,13,16.70
2018,08,09,05,14,16.70
2018,08,09,05,15,16.70
2018,08,09,05,16,16.60
2018,08,09,05,17,16.60
2018,08,09,05,18,16.60
2018,08,09,05,19,16.60
2018,08,09,05,20,16.60
2018,08,09,05,21,16.60
2018,08,09,05,22,16.60
2018,08,09,05,23,16.60
2018,08,09,05,24,16.60
2018,08,09,05,25,16.60
2018,08,09,05,26,16.60
2018,08,09,05,27,16.60
2018,08,09,05,28,16.60
2018,08,09,05,29,16.50
2018,08,09,05,30,16.50
2018,08,09,05,31,16.50
2018,08,09,05,32,16.40
2018,08,09,05,33,16.40
2018,08,09,05,34,16.40
2018,08,09,05,35,16.40
2018,08,09,05,36,16.40
2018,08,09,05,37,16.40
2018,08,09,05,38,16.30
2018,08,09,05,39,16.30
2018,08,09,05,40,16.30
2018,08,09,05,41,16.30
2018,08,09,05,42,16.30
2018,08,09,05,43,16.30
2018,08,09,05,44,16.20
2018,08,09,05,45,16.20
2018,08,09,05,46,16.20
2018,08,09,05,47,16.20
2018,08,09,05,48,16.20
2018,08,09,05,49,16.20
2018,08,09,05,50,16.20
2018,08,09,05,51,16.30
2018,08,09,05,52,16.30
2018,08,09,05,53,16.30
2018,08,09,05,54,16.30
2018,08,09,05,55,16.30
2018,08,09,05,56,16.30
2018,08,09,05,57,16.40
2018,08,09,05,58,16.40
2018,08,09,05,59,16.40
2018,08,09,06,00,16.40
2018,08,09,06,01,16.40
2018,08,09,06,02,16.40
2018,08,09,06,03,16.40
2018,08,09,06,04,16.40
2018,08,09,06,05,16.40
2018,08,09,06,06,16.40
2018,08,09,06,07,16.40
2018,08,09,06,08,16.40
2018,08,09,06,09,16.40
2018,08,09,06,10,16.40
2018,08,09,06,11,16.40
2018,08,09,06,12,16.40
2018,08,09,06,13,16.40
2018,08,09,06,14,16.50
2018,08,09,06,15,16.50
2018,08,09,06,16,16.40
2018,08,09,06,17,16.40
2018,08,09,06,18,16.40
2018,08,09,06,19,16.40
2018,08,09,06,20,16.40
2018,08,09,06,21,16.40
2018,08,09,06,22,16.40
2018,08,09,06,23,16.40
2018,08,09,06,24,16.40
2018,08,09,06,25,16.30
2018,08,09,06,26,16.30
2018,08,09,06,27,16.30
2018,08,09,06,28,16.30
2018,08,09,06,29,16.30
2018,08,09,06,30,16.30
2018,08,09,06,31,16.30
2018,08,09,06,32,16.30
2018,08,09,06,33,16.30
2018,08,09,06,34,16.30
2018,08,09,06,35,16.30
2018,08,09,06,36,16.30
2018,08,09,06,37,16.30
2018,08,09,06,38,16.30
2018,08,09,06,39,16.20
2018,08,09,06,40,16.20
2018,08,09,06,41,16.20
2018,08,09,06,42,16.20
2018,08,09,06,43,16.10
2018,08,09,06,44,16.10
2018,08,09,06,45,16.10
2018,08,09,06,46,16.00
2018,08,09,06,47,16.00
2018,08,09,06,48,15.90
2018,08,09,06,49,15.90
2018,08,09,06,50,15.90
2018,08,09,06,51,15.90
2018,08,09,06,52,15.80
2018,08,09,06,53,15.80
2018,08,09,06,54,15.80
2018,08,09,06,55,15.80
2018,08,09,06,56,15.80
2018,08,09,06,57,15.70
2018,08,09,06,58,15.70
2018,08,09,06,59,15.70
2018,08,09,07,00,15.70
2018,08,09,07,01,15.70
2018,08,09,07,02,15.70
2018,08,09,07,03,15.70
2018,08,09,07,04,15.70
2018,08,09,07,05,15.70
2018,08,09,07,06,15.70
2018,08,09,07,07,15.70
2018,08,09,07,08,15.70
2018,08,09,07,09,15.80
2018,08,09,07,10,15.80
2018,08,09,07,11,15.80
2018,08,09,07,12,15.80
2018,08,09,07,13,15.80
2018,08,09,07,14,15.80
2018,08,09,07,15,15.80
2018,08,09,07,16,15.80
2018,08,09,07,17,15.80
2018,08,09,07,18,15.80
2018,08,09,07,19,15.80
2018,08,09,07,20,15.70
2018,08,09,07,21,15.80
2018,08,09,07,22,15.80
2018,08,09,07,23,15.80
2018,08,09,07,24,15.80
2018,08,09,07,25,15.80
2018,08,09,07,26,15.80
2018,08,09,07,27,15.80
2018,08,09,07,28,15.80
2018,08,09,07,29,15.80
2018,08,09,07,30,15.90
2018,08,09,07,31,16.00
2018,08,09,07,32,16.00
2018,08,09,07,33,16.00
2018,08,09,07,34,16.20
2018,08,09,07,35,16.20
2018,08,09,07,36,16.30
2018,08,09,07,37,16.30
2018,08,09,07,38,16.40
2018,08,09,07,39,16.40
2018,08,09,07,40,16.50
2018,08,09,07,41,16.50
2018,08,09,07,42,16.60
2018,08,09,07,43,16.70
2018,08,09,07,44,16.80
2018,08,09,07,45,16.80
2018,08,09,07,46,16.80
2018,08,09,07,47,16.90
2018,08,09,07,48,16.90
2018,08,09,07,49,16.90
2018,08,09,07,50,17.00
2018,08,09,07,51,17.00
2018,08,09,07,52,17.10
2018,08,09,07,53,17.10
2018,08,09,07,54,17.20
2018,08,09,07,55,17.20
2018,08,09,07,56,17.30
2018,08,09,07,57,17.40
2018,08,09,07,58,17.40
2018,08,09,07,59,17.50
2018,08,09,08,00,17.50
2018,08,09,08,01,17.60
2018,08,09,08,02,17.60
2018,08,09,08,03,17.70
2018,08,09,08,04,17.70
2018,08,09,08,05,17.70
2018,08,09,08,06,17.80
2018,08,09,08,07,17.80
2018,08,09,08,08,17.90
2018,08,09,08,09,17.90
2018,08,09,08,10,18.00
2018,08,09,08,11,18.00
2018,08,09,08,12,18.00
2018,08,09,08,13,18.10
2018,08,09,08,14,18.10
2018,08,09,08,15,18.20
2018,08,09,08,16,18.20
2018,08,09,08,17,18.20
2018,08,09,08,18,18.30
2018,08,09,08,19,18.30
2018,08,09,08,20,18.30
2018,08,09,08,21,18.30
2018,08,09,08,22,18.40
2018,08,09,08,23,18.40
2018,08,09,08,24,18.40
2018,08,09,08,25,18.50
2018,08,09,08,26,18.60
2018,08,09,08,27,18.60
2018,08,09,08,28,18.70
2018,08,09,08,29,18.70
2018,08,09,08,30,18.80
2018,08,09,08,31,18.90
2018,08,09,08,32,18.90
2018,08,09,08,33,19.00
2018,08,09,08,34,19.00
2018,08,09,08,35,19.10
2018,08,09,08,36,19.10
2018,08,09,08,37,19.20
2018,08,09,08,38,19.20
2018,08,09,08,39,19.20
2018,08,09,08,40,19.30
2018,08,09,08,41,19.30
2018,08,09,08,42,19.30
2018,08,09,08,43,19.30
2018,08,09,08,44,19.40
2018,08,09,08,45,19.40
2018,08,09,08,46,19.50
2018,08,09,08,47,19.50
2018,08,09,08,48,19.50
2018,08,09,08,49,19.60
2018,08,09,08,50,19.60
2018,08,09,08,51,19.70
2018,08,09,08,52,19.70
2018,08,09,08,53,19.80
2018,08,09,08,54,19.80
2018,08,09,08,55,19.90
2018,08,09,08,56,19.90
2018,08,09,08,57,20.00
2018,08,09,08,58,20.00
2018,08,09,08,59,20.10
2018,08,09,09,00,20.10
2018,08,09,09,01,20.10
2018,08,09,09,02,20.20
2018,08,09,09,03,20.20
2018,08,09,09,04,20.20
2018,08,09,09,05,20.30
2018,08,09,09,06,20.30
2018,08,09,09,07,20.30
2018,08,09,09,08,20.30
2018,08,09,09,09,20.30
2018,08,09,09,10,20.40
2018,08,09,09,11,20.40
2018,08,09,09,12,20.50
2018,08,09,09,13,20.60
2018,08,09,09,14,20.60
2018,08,09,09,15,20.70
2018,08,09,09,16,20.80
2018,08,09,09,17,20.80
2018,08,09,09,18,20.90
2018,08,09,09,19,21.00
2018,08,09,09,20,21.00
2018,08,09,09,21,21.00
2018,08,09,09,22,21.10
2018,08,09,09,23,21.30
2018,08,09,09,24,21.40
2018,08,09,09,25,21.50
2018,08,09,09,26,21.60
2018,08,09,09,27,21.70
2018,08,09,09,28,21.80
2018,08,09,09,29,21.90
2018,08,09,09,30,22.00
2018,08,09,09,31,22.10
2018,08,09,09,32,22.20
2018,08,09,09,33,22.30
2018,08,09,09,34,22.40
2018,08,09,09,35,22.50
2018,08,09,09,36,22.60
2018,08,09,09,37,22.70
2018,08,09,09,38,22.80
2018,08,09,09,39,22.90
2018,08,09,09,40,22.90
2018,08,09,09,41,23.10
2018,08,09,09,42,23.20
2018,08,09,09,43,23.30
2018,08,09,09,44,23.40
2018,08,09,09,45,23.50
2018,08,09,09,46,23.70
2018,08,09,09,47,23.80
2018,08,09,09,48,23.90
2018,08,09,09,49,24.10
2018,08,09,09,50,24.10
2018,08,09,09,51,24.20
2018,08,09,09,52,24.20
2018,08,09,09,53,24.30
2018,08,09,09,54,24.30
2018,08,09,09,55,24.30
2018,08,09,09,56,24.30
2018,08,09,09,57,24.50
2018,08,09,09,58,24.60
2018,08,09,09,59,24.60
2018,08,09,10,00,24.60
2018,08,09,10,01,24.60
2018,08,09,10,02,24.70
2018,08,09,10,03,24.70
2018,08,09,10,04,24.70
2018,08,09,10,05,24.70
2018,08,09,10,06,24.70
2018,08,09,10,07,24.70
2018,08,09,10,08,24.70
2018,08,09,10,09,24.60
2018,08,09,10,10,24.60
2018,08,09,10,11,24.50
2018,08,09,10,12,24.50
2018,08,09,10,13,24.50
2018,08,09,10,14,24.50
2018,08,09,10,15,24.50
2018,08,09,10,16,24.50
2018,08,09,10,17,24.50
2018,08,09,10,18,24.50
2018,08,09,10,19,24.50
2018,08,09,10,20,24.60
2018,08,09,10,21,24.70
2018,08,09,10,22,24.70
2018,08,09,10,23,24.80
2018,08,09,10,24,24.80
2018,08,09,10,25,24.90
2018,08,09,10,26,24.90
2018,08,09,10,27,24.90
2018,08,09,10,28,25.00
2018,08,09,10,29,25.10
2018,08,09,10,30,25.00
2018,08,09,10,31,25.00
2018,08,09,10,32,25.00
2018,08,09,10,33,25.10
2018,08,09,10,34,25.10
2018,08,09,10,35,25.10
2018,08,09,10,36,25.20
2018,08,09,10,37,25.20
2018,08,09,10,38,25.30
2018,08,09,10,39,25.40
2018,08,09,10,40,25.50
2018,08,09,10,41,25.60
2018,08,09,10,42,25.70
2018,08,09,10,43,25.90
2018,08,09,10,44,25.90
2018,08,09,10,45,26.00
2018,08,09,10,46,26.10
2018,08,09,10,47,26.20
2018,08,09,10,48,26.30
2018,08,09,10,49,26.40
2018,08,09,10,50,26.40
2018,08,09,10,51,26.50
2018,08,09,10,52,26.60
2018,08,09,10,53,26.70
2018,08,09,10,54,26.80
2018,08,09,10,55,27.00
2018,08,09,10,56,27.10
2018,08,09,10,57,27.20
2018,08,09,10,58,27.20
2018,08,09,10,59,27.20
2018,08,09,11,00,27.20
2018,08,09,11,01,27.20
2018,08,09,11,02,27.30
2018,08,09,11,03,27.60
2018,08,09,11,04,27.60
2018,08,09,11,05,27.70
2018,08,09,11,06,27.80
2018,08,09,11,07,27.90
2018,08,09,11,08,27.90
2018,08,09,11,09,28.00
2018,08,09,11,10,28.00
2018,08,09,11,11,28.00
2018,08,09,11,12,28.00
2018,08,09,11,13,28.00
2018,08,09,11,14,27.90
2018,08,09,11,15,27.80
2018,08,09,11,16,27.80
2018,08,09,11,17,27.70
2018,08,09,11,18,27.70
2018,08,09,11,19,27.70
2018,08,09,11,20,27.70
2018,08,09,11,21,27.70
2018,08,09,11,22,27.70
2018,08,09,11,23,27.70
2018,08,09,11,24,27.80
2018,08,09,11,25,27.80
2018,08,09,11,26,27.80
2018,08,09,11,27,27.70
2018,08,09,11,28,27.70
2018,08,09,11,29,27.70
2018,08,09,11,30,27.70
2018,08,09,11,31,27.70
2018,08,09,11,32,27.70
2018,08,09,11,33,27.70
2018,08,09,11,34,27.70
2018,08,09,11,35,27.70
2018,08,09,11,36,27.70
2018,08,09,11,37,27.70
2018,08,09,11,38,27.70
2018,08,09,11,39,27.80
2018,08,09,11,40,27.90
2018,08,09,11,41,27.90
2018,08,09,11,42,28.10
2018,08,09,11,43,28.30
2018,08,09,11,44,28.40
2018,08,09,11,45,28.60
2018,08,09,11,46,28.80
2018,08,09,11,47,28.90
2018,08,09,11,48,28.90
2018,08,09,11,49,28.90
2018,08,09,11,50,28.90
2018,08,09,11,51,28.90
2018,08,09,11,52,29.00
2018,08,09,11,53,29.00
2018,08,09,11,54,29.00
2018,08,09,11,55,29.10
2018,08,09,11,56,29.20
2018,08,09,11,57,29.30
2018,08,09,11,58,29.30
2018,08,09,11,59,29.30
2018,08,09,12,00,29.30
2018,08,09,12,01,29.20
2018,08,09,12,02,29.10
2018,08,09,12,03,29.10
2018,08,09,12,04,29.20
2018,08,09,12,05,29.20
2018,08,09,12,06,29.30
2018,08,09,12,07,29.30
2018,08,09,12,08,29.30
2018,08,09,12,09,29.30
2018,08,09,12,10,29.40
2018,08,09,12,11,29.40
2018,08,09,12,12,29.40
2018,08,09,12,13,29.50
2018,08,09,12,14,29.50
2018,08,09,12,15,29.60
2018,08,09,12,16,29.80
2018,08,09,12,17,29.80
2018,08,09,12,18,29.80
2018,08,09,12,19,29.80
2018,08,09,12,20,29.80
2018,08,09,12,21,30.00
2018,08,09,12,22,30.10
2018,08,09,12,23,30.20
2018,08,09,12,24,30.30
2018,08,09,12,25,30.30
2018,08,09,12,26,30.60
2018,08,09,12,27,30.70
2018,08,09,12,28,30.70
2018,08,09,12,29,30.80
2018,08,09,12,30,30.80
2018,08,09,12,31,30.80
2018,08,09,12,32,30.80
2018,08,09,12,33,30.90
2018,08,09,12,34,31.00
2018,08,09,12,35,31.00
2018,08,09,12,36,31.20
2018,08,09,12,37,31.30
2018,08,09,12,38,31.40
2018,08,09,12,39,31.50
2018,08,09,12,40,31.60
2018,08,09,12,41,31.70
2018,08,09,12,42,31.70
2018,08,09,12,43,31.80
2018,08,09,12,44,31.80
2018,08,09,12,45,31.70
2018,08,09,12,46,31.60
2018,08,09,12,47,31.60
2018,08,09,12,48,31.60
2018,08,09,12,49,31.60
2018,08,09,12,50,31.50
2018,08,09,12,51,31.50
2018,08,09,12,52,31.50
2018,08,09,12,53,31.50
2018,08,09,12,54,31.60
2018,08,09,12,55,31.60
2018,08,09,12,56,31.70
2018,08,09,12,57,31.80
2018,08,09,12,58,31.90
2018,08,09,12,59,32.00
2018,08,09,13,00,32.10
2018,08,09,13,01,32.10
2018,08,09,13,02,32.10
2018,08,09,13,03,32.20
2018,08,09,13,04,32.30
2018,08,09,13,05,32.40
2018,08,09,13,06,32.50
2018,08,09,13,07,32.70
2018,08,09,13,08,32.80
2018,08,09,13,09,32.80
2018,08,09,13,10,32.80
2018,08,09,13,11,32.70
2018,08,09,13,12,32.60
2018,08,09,13,13,32.50
2018,08,09,13,14,32.40
2018,08,09,13,15,32.40
2018,08,09,13,16,32.30
2018,08,09,13,17,32.30
2018,08,09,13,18,32.30
2018,08,09,13,19,32.30
2018,08,09,13,20,32.30
2018,08,09,13,21,32.30
2018,08,09,13,22,32.40
2018,08,09,13,23,32.50
2018,08,09,13,24,32.60
2018,08,09,13,25,32.70
2018,08,09,13,26,32.80
2018,08,09,13,27,32.90
2018,08,09,13,28,32.90
2018,08,09,13,29,33.00
2018,08,09,13,30,32.90
2018,08,09,13,31,32.80
2018,08,09,13,32,32.70
2018,08,09,13,33,32.70
2018,08,09,13,34,32.70
2018,08,09,13,35,32.80
2018,08,09,13,36,32.80
2018,08,09,13,37,32.90
2018,08,09,13,38,32.90
2018,08,09,13,39,33.00
2018,08,09,13,40,33.00
2018,08,09,13,41,33.10
2018,08,09,13,42,33.10
2018,08,09,13,43,33.20
2018,08,09,13,44,33.30
2018,08,09,13,45,33.40
2018,08,09,13,46,33.40
2018,08,09,13,47,33.50
2018,08,09,13,48,33.60
2018,08,09,13,49,33.60
2018,08,09,13,50,33.70
2018,08,09,13,51,33.70
2018,08,09,13,52,33.80
2018,08,09,13,53,33.90
2018,08,09,13,54,34.00
2018,08,09,13,55,34.10
2018,08,09,13,56,34.10
2018,08,09,13,57,34.20
2018,08,09,13,58,34.20
2018,08,09,13,59,34.20
2018,08,09,14,00,34.20
2018,08,09,14,01,34.20
2018,08,09,14,02,34.20
2018,08,09,14,03,34.20
2018,08,09,14,04,34.20
2018,08,09,14,05,34.20
2018,08,09,14,06,34.20
2018,08,09,14,07,34.20
2018,08,09,14,08,34.20
2018,08,09,14,09,34.20
2018,08,09,14,10,34.20
2018,08,09,14,11,34.30
2018,08,09,14,12,34.30
2018,08,09,14,13,34.40
2018,08,09,14,14,34.30
2018,08,09,14,15,34.20
2018,08,09,14,16,34.10
2018,08,09,14,17,34.00
2018,08,09,14,18,34.00
2018,08,09,14,19,34.00
2018,08,09,14,20,34.10
2018,08,09,14,21,34.10
2018,08,09,14,22,34.20
2018,08,09,14,23,34.30
2018,08,09,14,24,34.30
2018,08,09,14,25,34.20
2018,08,09,14,26,34.10
2018,08,09,14,27,34.00
2018,08,09,14,28,33.80
2018,08,09,14,29,33.60
2018,08,09,14,30,33.50
2018,08,09,14,31,33.50
2018,08,09,14,32,33.50
2018,08,09,14,33,33.60
2018,08,09,14,34,33.60
2018,08,09,14,35,33.60
2018,08,09,14,36,33.50
2018,08,09,14,37,33.40
2018,08,09,14,38,33.40
2018,08,09,14,39,33.30
2018,08,09,14,40,33.30
2018,08,09,14,41,33.30
2018,08,09,14,42,33.30
2018,08,09,14,43,33.30
2018,08,09,14,44,33.30
2018,08,09,14,45,33.30
2018,08,09,14,46,33.20
2018,08,09,14,47,33.20
2018,08,09,14,48,33.20
2018,08,09,14,49,33.20
2018,08,09,14,50,33.20
2018,08,09,14,51,33.20
2018,08,09,14,52,33.20
2018,08,09,14,53,33.20
2018,08,09,14,54,33.20
2018,08,09,14,55,33.20
2018,08,09,14,56,33.20
2018,08,09,14,57,33.30
2018,08,09,14,58,33.30
2018,08,09,14,59,33.50
2018,08,09,15,00,33.60
2018,08,09,15,01,33.60
2018,08,09,15,02,33.60
2018,08,09,15,03,33.60
2018,08,09,15,04,33.60
2018,08,09,15,05,33.50
2018,08,09,15,06,33.50
2018,08,09,15,07,33.40
2018,08,09,15,08,33.30
2018,08,09,15,09,33.30
2018,08,09,15,10,33.30
2018,08,09,15,11,33.30
2018,08,09,15,12,33.30
2018,08,09,15,13,33.30
2018,08,09,15,14,33.30
2018,08,09,15,15,33.40
2018,08,09,15,16,33.40
2018,08,09,15,17,33.50
2018,08,09,15,18,33.60
2018,08,09,15,19,33.60
2018,08,09,15,20,33.50
2018,08,09,15,21,33.40
2018,08,09,15,22,33.40
2018,08,09,15,23,33.40
2018,08,09,15,24,33.40
2018,08,09,15,25,33.40
2018,08,09,15,26,33.40
2018,08,09,15,27,33.40
2018,08,09,15,28,33.40
2018,08,09,15,29,33.50
2018,08,09,15,30,33.60
2018,08,09,15,31,33.60
2018,08,09,15,32,33.60
2018,08,09,15,33,33.70
2018,08,09,15,34,33.70
2018,08,09,15,35,33.80
2018,08,09,15,36,33.80
2018,08,09,15,37,33.90
2018,08,09,15,38,33.90
2018,08,09,15,39,33.90
2018,08,09,15,40,33.90
2018,08,09,15,41,33.80
2018,08,09,15,42,33.80
2018,08,09,15,43,33.80
2018,08,09,15,44,33.70
2018,08,09,15,45,33.70
2018,08,09,15,46,33.70
2018,08,09,15,47,33.70
2018,08,09,15,48,33.70
2018,08,09,15,49,33.70
2018,08,09,15,50,33.60
2018,08,09,15,51,33.60
2018,08,09,15,52,33.60
2018,08,09,15,53,33.60
2018,08,09,15,54,33.60
2018,08,09,15,55,33.60
2018,08,09,15,56,33.60
2018,08,09,15,57,33.60
2018,08,09,15,58,33.50
2018,08,09,15,59,33.40
2018,08,09,16,00,33.40
2018,08,09,16,01,33.40
2018,08,09,16,02,33.50
2018,08,09,16,03,33.50
2018,08,09,16,04,33.60
2018,08,09,16,05,33.70
2018,08,09,16,06,33.70
2018,08,09,16,07,33.80
2018,08,09,16,08,33.90
2018,08,09,16,09,34.00
2018,08,09,16,10,34.00
2018,08,09,16,11,34.10
2018,08,09,16,12,34.10
2018,08,09,16,13,34.10
2018,08,09,16,14,34.10
2018,08,09,16,15,34.10
2018,08,09,16,16,34.00
2018,08,09,16,17,34.10
2018,08,09,16,18,34.00
2018,08,09,16,19,33.90
2018,08,09,16,20,33.80
2018,08,09,16,21,33.70
2018,08,09,16,22,33.50
2018,08,09,16,23,33.50
2018,08,09,16,24,33.40
2018,08,09,16,25,33.30
2018,08,09,16,26,33.20
2018,08,09,16,27,33.20
2018,08,09,16,28,33.20
2018,08,09,16,29,33.10
2018,08,09,16,30,33.10
2018,08,09,16,31,33.10
2018,08,09,16,32,33.10
2018,08,09,16,33,33.10
2018,08,09,16,34,33.00
2018,08,09,16,35,33.00
2018,08,09,16,36,33.00
2018,08,09,16,37,33.10
2018,08,09,16,38,33.10
2018,08,09,16,39,33.10
2018,08,09,16,40,33.10
2018,08,09,16,41,33.20
2018,08,09,16,42,33.20
2018,08,09,16,43,33.20
2018,08,09,16,44,33.30
2018,08,09,16,45,33.40
2018,08,09,16,46,33.40
2018,08,09,16,47,33.40
2018,08,09,16,48,33.40
2018,08,09,16,49,33.30
2018,08,09,16,50,33.20
2018,08,09,16,51,33.20
2018,08,09,16,52,33.20
2018,08,09,16,53,33.20
2018,08,09,16,54,33.20
2018,08,09,16,55,33.30
2018,08,09,16,56,33.30
2018,08,09,16,57,33.30
2018,08,09,16,58,33.30
2018,08,09,16,59,33.30
2018,08,09,17,00,33.30
2018,08,09,17,01,33.30
2018,08,09,17,02,33.70
2018,08,09,17,03,33.70
2018,08,09,17,04,33.80
2018,08,09,17,05,33.80
2018,08,09,17,06,33.80
2018,08,09,17,07,33.80
2018,08,09,17,08,33.70
2018,08,09,17,09,33.60
2018,08,09,17,10,33.60
2018,08,09,17,11,33.60
2018,08,09,17,12,33.50
2018,08,09,17,13,33.50
2018,08,09,17,14,33.40
2018,08,09,17,15,33.30
2018,08,09,17,16,33.30
2018,08,09,17,17,33.20
2018,08,09,17,18,33.20
2018,08,09,17,19,33.20